When you browse on this site, cookies collect data to enhance your experience and personalize the content and advertising you see.
Visit our Privacy Policy to learn more. By continuing to use the site, you agree to this use of cookies and data.
  • în România
  • Lista ţărilor
  • Pe 7 zile
  • Temperatura apei
  • Meteo pe hartă
  • Widget-uri
  • user-avatar
    Intrare

    Meteo pe oră la Bobo-Dioulasso

    Astăzi, 20 Septembrie, Vineri

    Timp Temperatura Precipitaţii Vânt Presiune Umiditate
    00:00 +25°C° 0 mm 1 m/s 723 mmHg 90%
    01:00 +25°C° 0.8 mm 1 m/s 722 mmHg 91%
    02:00 +24°C° 0.8 mm 1 m/s 722 mmHg 92%
    03:00 +24°C° 0.8 mm 1 m/s 721 mmHg 93%
    04:00 +24°C° 0.1 mm 1 m/s 722 mmHg 92%
    05:00 +24°C° 0.1 mm 1 m/s 722 mmHg 91%
    06:00 +24°C° 0 mm 1 m/s 723 mmHg 89%
    07:00 +25°C° 0 mm 1 m/s 723 mmHg 87%
    08:00 +26°C° 0 mm 2 m/s 724 mmHg 86%
    09:00 +27°C° 0 mm 2 m/s 724 mmHg 84%
    10:00 +27°C° 0.1 mm 2 m/s 724 mmHg 82%
    11:00 +27°C° 0.1 mm 2 m/s 724 mmHg 81%
    12:00 +28°C° 0.1 mm 2 m/s 723 mmHg 79%
    13:00 +28°C° 0 mm 2 m/s 723 mmHg 77%
    14:00 +29°C° 0 mm 2 m/s 722 mmHg 74%
    15:00 +30°C° 0 mm 2 m/s 721 mmHg 72%
    16:00 +29°C° 0 mm 2 m/s 722 mmHg 76%
    17:00 +28°C° 0 mm 1 m/s 722 mmHg 81%
    18:00 +27°C° 0 mm 1 m/s 722 mmHg 85%
    19:00 +26°C° 0 mm 1 m/s 722 mmHg 86%
    20:00 +26°C° 0 mm 1 m/s 723 mmHg 87%
    21:00 +25°C° 0 mm 1 m/s 723 mmHg 88%
    22:00 +25°C° 0 mm 1 m/s 723 mmHg 88%
    23:00 +25°C° 0 mm 1 m/s 723 mmHg 87%

    Mâine, 21 Septembrie, Sâmbătă

    Timp Temperatura Precipitaţii Vânt Presiune Umiditate
    00:00 +23°C° 0 mm 0 m/s 723 mmHg 87%
    01:00 +25°C° 0.3 mm 1 m/s 723 mmHg 88%
    02:00 +25°C° 0.3 mm 1 m/s 723 mmHg 89%
    03:00 +24°C° 0.3 mm 1 m/s 722 mmHg 90%
    04:00 +24°C° 0 mm 1 m/s 723 mmHg 92%
    05:00 +24°C° 0 mm 1 m/s 723 mmHg 94%
    06:00 +23°C° 0 mm 1 m/s 724 mmHg 95%
    07:00 +25°C° 0 mm 2 m/s 724 mmHg 91%
    08:00 +26°C° 0 mm 2 m/s 724 mmHg 87%
    09:00 +27°C° 0 mm 3 m/s 725 mmHg 83%
    10:00 +29°C° 0 mm 2 m/s 724 mmHg 76%
    11:00 +30°C° 0 mm 2 m/s 724 mmHg 70%
    12:00 +31°C° 0 mm 2 m/s 724 mmHg 63%
    13:00 +32°C° 0 mm 2 m/s 723 mmHg 62%
    14:00 +32°C° 0 mm 2 m/s 723 mmHg 60%
    15:00 +32°C° 0 mm 2 m/s 722 mmHg 59%
    16:00 +31°C° 0 mm 1 m/s 722 mmHg 64%
    17:00 +30°C° 0 mm 1 m/s 722 mmHg 70%
    18:00 +29°C° 0 mm 1 m/s 721 mmHg 75%
    19:00 +28°C° 0 mm 1 m/s 722 mmHg 77%
    20:00 +27°C° 0 mm 1 m/s 723 mmHg 79%
    21:00 +27°C° 0 mm 1 m/s 723 mmHg 81%
    22:00 +26°C° 0 mm 1 m/s 723 mmHg 81%
    23:00 +26°C° 0 mm 1 m/s 723 mmHg 82%

    Poimâine, 22 Septembrie, Duminică

    Timp Temperatura Precipitaţii Vânt Presiune Umiditate
    00:00 +26°C° 0 mm 1 m/s 723 mmHg 82%
    01:00 +26°C° 0.3 mm 1 m/s 723 mmHg 84%
    02:00 +26°C° 0.3 mm 1 m/s 723 mmHg 85%
    03:00 +25°C° 0.3 mm 1 m/s 722 mmHg 86%
    04:00 +25°C° 0.1 mm 1 m/s 722 mmHg 87%
    05:00 +25°C° 0.1 mm 1 m/s 723 mmHg 88%
    06:00 +25°C° 0.1 mm 1 m/s 723 mmHg 89%
    07:00 +26°C° 0 mm 1 m/s 723 mmHg 84%
    08:00 +28°C° 0 mm 2 m/s 723 mmHg 80%
    09:00 +29°C° 0 mm 2 m/s 724 mmHg 76%
    10:00 +30°C° 0 mm 2 m/s 723 mmHg 69%
    11:00 +32°C° 0 mm 2 m/s 723 mmHg 62%
    12:00 +33°C° 0 mm 1 m/s 723 mmHg 56%
    13:00 +34°C° 0 mm 1 m/s 722 mmHg 54%
    14:00 +34°C° 0 mm 1 m/s 722 mmHg 52%
    15:00 +35°C° 0 mm 1 m/s 721 mmHg 50%
    16:00 +33°C° 0.2 mm 1 m/s 721 mmHg 57%
    17:00 +32°C° 0.2 mm 1 m/s 721 mmHg 63%
    18:00 +30°C° 0.2 mm 1 m/s 721 mmHg 70%
    19:00 +29°C° 0.4 mm 1 m/s 721 mmHg 73%
    20:00 +28°C° 0.4 mm 1 m/s 722 mmHg 76%
    21:00 +27°C° 0.4 mm 2 m/s 722 mmHg 79%
    22:00 +27°C° 0.1 mm 2 m/s 722 mmHg 82%
    23:00 +27°C° 0.1 mm 2 m/s 722 mmHg 84%

    23 Septembrie, Luni

    Timp Temperatura Precipitaţii Vânt Presiune Umiditate
    00:00 +26°C° 0.1 mm 2 m/s 722 mmHg 87%
    01:00 +26°C° 0.1 mm 2 m/s 722 mmHg 89%
    02:00 +25°C° 0.1 mm 2 m/s 722 mmHg 91%
    03:00 +25°C° 0.1 mm 2 m/s 721 mmHg 92%
    04:00 +25°C° 0 mm 2 m/s 722 mmHg 93%
    05:00 +25°C° 0 mm 2 m/s 722 mmHg 93%
    06:00 +24°C° 0 mm 2 m/s 722 mmHg 94%
    07:00 +26°C° 0 mm 3 m/s 723 mmHg 90%
    08:00 +27°C° 0 mm 3 m/s 723 mmHg 86%
    09:00 +28°C° 0 mm 3 m/s 724 mmHg 83%
    10:00 +30°C° 0 mm 3 m/s 724 mmHg 76%
    11:00 +31°C° 0 mm 3 m/s 723 mmHg 70%
    12:00 +34°C° 0 mm 2 m/s 723 mmHg 64%
    13:00 +34°C° 0.8 mm 2 m/s 723 mmHg 64%
    14:00 +34°C° 0.8 mm 2 m/s 722 mmHg 64%
    15:00 +33°C° 0.8 mm 1 m/s 722 mmHg 64%
    16:00 +32°C° 0.6 mm 1 m/s 722 mmHg 70%
    17:00 +30°C° 0.6 mm 1 m/s 722 mmHg 76%
    18:00 +29°C° 0.6 mm 2 m/s 722 mmHg 81%
    19:00 +28°C° 0.3 mm 2 m/s 722 mmHg 84%
    20:00 +27°C° 0.3 mm 2 m/s 723 mmHg 86%
    21:00 +27°C° 0.3 mm 2 m/s 723 mmHg 88%
    22:00 +26°C° 0 mm 2 m/s 723 mmHg 90%
    23:00 +26°C° 0 mm 2 m/s 723 mmHg 92%

    24 Septembrie, Marţi

    Timp Temperatura Precipitaţii Vânt Presiune Umiditate
    00:00 +26°C° 0 mm 2 m/s 724 mmHg 93%
    01:00 +25°C° 0 mm 2 m/s 723 mmHg 93%
    02:00 +25°C° 0 mm 2 m/s 723 mmHg 93%
    03:00 +25°C° 0 mm 2 m/s 723 mmHg 93%
    04:00 +25°C° 0 mm 2 m/s 723 mmHg 94%
    05:00 +25°C° 0 mm 2 m/s 723 mmHg 94%
    06:00 +25°C° 0 mm 2 m/s 723 mmHg 95%
    07:00 +26°C° 0 mm 2 m/s 723 mmHg 90%
    08:00 +27°C° 0 mm 2 m/s 724 mmHg 85%
    09:00 +28°C° 0 mm 2 m/s 724 mmHg 81%
    10:00 +30°C° 0 mm 2 m/s 724 mmHg 75%
    11:00 +31°C° 0 mm 2 m/s 724 mmHg 68%
    12:00 +32°C° 0 mm 2 m/s 724 mmHg 62%
    13:00 +30°C° 3.1 mm 3 m/s 723 mmHg 71%
    14:00 +28°C° 3.1 mm 4 m/s 723 mmHg 80%
    15:00 +26°C° 3.1 mm 5 m/s 722 mmHg 89%
    16:00 +26°C° 0.2 mm 4 m/s 722 mmHg 88%
    17:00 +25°C° 0.2 mm 2 m/s 722 mmHg 88%
    18:00 +25°C° 0.2 mm 1 m/s 722 mmHg 88%
    19:00 +25°C° 0 mm 2 m/s 722 mmHg 88%
    20:00 +25°C° 0 mm 2 m/s 722 mmHg 88%
    21:00 +25°C° 0 mm 3 m/s 722 mmHg 89%
    22:00 +24°C° 0 mm 2 m/s 723 mmHg 90%
    23:00 +24°C° 0 mm 1 m/s 723 mmHg 91%

    25 Septembrie, Miercuri

    Timp Temperatura Precipitaţii Vânt Presiune Umiditate
    00:00 +24°C° 0 mm 1 m/s 723 mmHg 92%
    01:00 +24°C° 0 mm 1 m/s 723 mmHg 91%
    02:00 +24°C° 0 mm 1 m/s 723 mmHg 90%
    03:00 +24°C° 0 mm 1 m/s 723 mmHg 89%
    04:00 +24°C° 0 mm 1 m/s 723 mmHg 89%
    05:00 +23°C° 0 mm 1 m/s 723 mmHg 88%
    06:00 +23°C° 0 mm 1 m/s 723 mmHg 87%
    07:00 +25°C° 0 mm 2 m/s 723 mmHg 83%
    08:00 +26°C° 0 mm 2 m/s 724 mmHg 79%
    09:00 +27°C° 0 mm 3 m/s 724 mmHg 74%
    10:00 +29°C° 0 mm 3 m/s 724 mmHg 70%
    11:00 +30°C° 0 mm 3 m/s 723 mmHg 65%
    12:00 +31°C° 0 mm 3 m/s 723 mmHg 61%
    13:00 +33°C° 0 mm 3 m/s 722 mmHg 60%
    14:00 +33°C° 0 mm 3 m/s 722 mmHg 59%
    15:00 +34°C° 0 mm 2 m/s 721 mmHg 58%
    16:00 +31°C° 0 mm 2 m/s 721 mmHg 63%
    17:00 +30°C° 0 mm 1 m/s 721 mmHg 68%
    18:00 +29°C° 0 mm 1 m/s 722 mmHg 74%
    19:00 +28°C° 0 mm 1 m/s 722 mmHg 75%
    20:00 +26°C° 0 mm 0 m/s 722 mmHg 77%
    21:00 +25°C° 0 mm 0 m/s 723 mmHg 78%
    22:00 +25°C° 0 mm 0 m/s 723 mmHg 79%
    23:00 +24°C° 0 mm 0 m/s 723 mmHg 80%
    Arată mai mult